TimeEST,TemperatureF,Dew PointF,Humidity,Sea Level PressureIn,VisibilityMPH,Wind Direction,Wind SpeedMPH,Gust SpeedMPH,PrecipitationIn,Events,Conditions,WindDirDegrees,DateUTC
12:53 AM,45.0,39.0,80,30.11,10.0,Calm,Calm,-,N/A,,Clear,0,2012-11-21 05:53:00
1:53 AM,42.1,37.9,85,30.10,10.0,Calm,Calm,-,N/A,,Clear,0,2012-11-21 06:53:00
2:53 AM,39.0,37.0,93,30.12,10.0,NNW,3.5,-,N/A,,Clear,330,2012-11-21 07:53:00
3:53 AM,37.9,35.1,89,30.13,10.0,NW,3.5,-,N/A,,Clear,320,2012-11-21 08:53:00
4:53 AM,39.0,36.0,89,30.14,10.0,Calm,Calm,-,N/A,,Mostly Cloudy,0,2012-11-21 09:53:00
5:53 AM,37.9,35.1,89,30.16,10.0,Calm,Calm,-,N/A,,Clear,0,2012-11-21 10:53:00
6:53 AM,35.1,34.0,96,30.18,9.0,Calm,Calm,-,N/A,,Scattered Clouds,0,2012-11-21 11:53:00
7:53 AM,39.0,37.0,93,30.19,9.0,Calm,Calm,-,N/A,,Overcast,0,2012-11-21 12:53:00
8:53 AM,46.0,41.0,83,30.21,10.0,Calm,Calm,-,N/A,,Overcast,0,2012-11-21 13:53:00
9:53 AM,48.9,39.0,69,30.22,10.0,Calm,Calm,-,N/A,,Overcast,0,2012-11-21 14:53:00
10:53 AM,53.1,41.0,64,30.23,10.0,Calm,Calm,-,N/A,,Overcast,0,2012-11-21 15:53:00
11:53 AM,55.9,41.0,57,30.22,10.0,NW,4.6,-,N/A,,Overcast,310,2012-11-21 16:53:00
12:53 PM,62.1,39.9,44,30.20,10.0,Calm,Calm,-,N/A,,Partly Cloudy,0,2012-11-21 17:53:00
1:53 PM,63.0,39.0,41,30.19,10.0,ESE,3.5,-,N/A,,Clear,120,2012-11-21 18:53:00
2:53 PM,63.0,39.0,41,30.19,10.0,Calm,Calm,-,N/A,,Clear,0,2012-11-21 19:53:00
3:53 PM,64.0,39.0,40,30.19,10.0,Calm,Calm,-,N/A,,Clear,0,2012-11-21 20:53:00
4:53 PM,61.0,37.9,42,30.19,10.0,Calm,Calm,-,N/A,,Clear,0,2012-11-21 21:53:00
5:53 PM,52.0,37.9,59,30.20,10.0,Calm,Calm,-,N/A,,Clear,0,2012-11-21 22:53:00
6:53 PM,46.0,37.9,73,30.22,10.0,Calm,Calm,-,N/A,,Clear,0,2012-11-21 23:53:00
7:53 PM,45.0,37.9,76,30.22,10.0,Calm,Calm,-,N/A,,Clear,0,2012-11-22 00:53:00
8:53 PM,42.1,37.0,82,30.21,10.0,Calm,Calm,-,N/A,,Clear,0,2012-11-22 01:53:00
9:53 PM,39.9,35.1,83,30.22,10.0,Calm,Calm,-,N/A,,Clear,0,2012-11-22 02:53:00
10:53 PM,39.0,35.1,86,30.22,9.0,Calm,Calm,-,N/A,,Clear,0,2012-11-22 03:53:00
11:53 PM,37.0,34.0,89,30.21,8.0,Calm,Calm,-,N/A,,Clear,0,2012-11-22 04:53:00